This demonstration page uses our WeatherBlox Daily Observations layout. Learn more.

Left ArrowRight Arrow

31.31129, -92.44514

Hourly Observations for December 15, 2021

Temp ( °F °C ) Dew Point ( °F °C ) Humidity (%) Winds ( mph kmh ) Pressure ( in mb ) Visibility ( mi km ) Precip ( " mm )
12:05 am 00:05 Cloudy with Mist and Fog 68 20 65 18.3 90 90 SE 9 15 30.24 1024 5 8 0.00 0.00
12:16 am 00:16 Cloudy with Mist and Fog 68 20 65 18.3 90 90 SE 12 19 30.24 1024 5 8 0.00 0.00
12:53 am 00:53 Cloudy with Mist and Fog 68 20 65 18.3 90 90 SSE 10 17 30.24 1024 5 8 0.00 0.00
1:53 am 01:53 Cloudy with Mist and Fog 68 20 65 18.3 90 90 SE 9 15 30.23 1024 4 6 0.00 0.00
2:53 am 02:53 Cloudy with Mist and Fog 68 20 65 18.3 90 90 SSE 10 17 30.23 1024 5 8 0.00 0.00
3:51 am 03:51 Cloudy with Mist and Fog 68 20 64 18 88 88 SE 10 17 30.21 1023 5 8 0.00 0.00
3:53 am 03:53 Cloudy with Mist and Fog 68 20 65 18.3 90 90 SSE 10 17 30.22 1023 5 8 0.00 0.00
4:15 am 04:15 Cloudy with Mist and Fog 68 20 65 18.3 90 90 SE 10 17 30.21 1023 6 10 0.00 0.00
4:53 am 04:53 Cloudy 68 20 65 18.3 90 90 SSE 10 17 30.22 1023 7 11 0.00 0.00
5:39 am 05:39 Cloudy 68 20 65 18.3 90 90 SSE 9 15 30.21 1023 7 11 0.00 0.00
5:53 am 05:53 Cloudy with Mist and Fog 68 20 64 17.8 87 87 SE 9 15 30.22 1023 6 10 0.00 0.00
6:23 am 06:23 Cloudy with Mist and Fog 67 19.4 65 18.3 93 93 SE 8 13 30.22 1023 4 6 0.00 0.00
6:35 am 06:35 Cloudy with Mist and Fog 67 19.4 65 18.3 93 93 SE 8 13 30.21 1023 4 6 0.00 0.00
6:53 am 06:53 Cloudy with Mist and Fog 67 19.4 65 18.3 93 93 SE 8 13 30.22 1023 5 8 0.00 0.00
7:00 am 07:00 Cloudy with Mist and Fog 67 19.4 65 18.3 93 93 SE 9 15 30.21 1023 5 8 0.00 0.00
7:34 am 07:34 Cloudy with Mist and Fog 68 20 65 18.3 90 90 SE 8 13 30.21 1023 5 8 0.00 0.00
7:53 am 07:53 Cloudy with Mist and Fog 68 20 65 18.3 90 90 SSE 9 15 30.22 1024 5 8 0.00 0.00
8:53 am 08:53 Cloudy with Mist and Fog 68 20 65 18.3 90 90 SSE 9 15 30.23 1024 3 5 0.00 0.00
9:53 am 09:53 Cloudy with Mist and Fog 69 20.6 65 18.3 87 87 SE 9 15 30.24 1024 5 8 0.00 0.00
10:53 am 10:53 Cloudy 70 21.1 66 18.9 87 87 SSE 8 13 30.23 1024 7 11 0.00 0.00
11:14 am 11:14 Cloudy 72 22.2 66 18.9 82 82 SSE 10 17 30.20 1023 9 14 0.00 0.00
11:42 am 11:42 Cloudy 73 22.8 66 18.9 79 79 SSE 9 15 30.19 1022 10 16 0.00 0.00
11:53 am 11:53 Cloudy 74 23.3 66 18.9 76 76 SSE 13 20 30.18 1022 10 16 0.00 0.00
12:07 pm 12:07 Cloudy 74 23.3 65 18.3 74 74 S 13 20 30.16 1021 10 16 0.00 0.00
12:44 pm 12:44 Cloudy 75 23.9 66 18.9 74 74 S 12 19 30.14 1021 10 16 0.00 0.00
12:53 pm 12:53 Cloudy 75 23.9 65 18.3 71 71 S 15 24 30.14 1021 10 16 0.00 0.00
1:53 pm 13:53 Mostly Cloudy 77 25 65 18.3 66 66 SSW 13 20 30.11 1020 10 16 0.00 0.00
2:53 pm 14:53 Mostly Cloudy 78 25.6 66 18.9 67 67 S 9 15 30.09 1019 10 16 0.00 0.00
3:53 pm 15:53 Partly Cloudy 77 25 65 18.3 66 66 S 12 19 30.09 1019 10 16 0.00 0.00
4:53 pm 16:53 Partly Cloudy 75 23.9 65 18.3 71 71 SSE 13 20 30.09 1019 10 16 0.00 0.00
5:53 pm 17:53 Mostly Clear 73 22.8 65 18.3 76 76 S 10 17 30.09 1019 10 16 0.00 0.00
6:53 pm 18:53 Mostly Clear 72 22.2 65 18.3 79 79 SSE 14 22 30.08 1019 10 16 0.00 0.00
7:53 pm 19:53 Mostly Clear 70 21.1 65 18.3 84 84 S 8 13 30.08 1019 10 16 0.00 0.00
8:53 pm 20:53 Partly Cloudy 71 21.7 65 18.3 81 81 S 10 17 30.09 1019 10 16 0.00 0.00
9:53 pm 21:53 Cloudy 71 21.7 65 18.3 81 81 S 9 15 30.10 1019 10 16 0.00 0.00
10:36 pm 22:36 Cloudy 71 21.7 65 18.3 81 81 SSE 9 15 30.09 1019 10 16 0.00 0.00
10:53 pm 22:53 Cloudy 71 21.7 65 18.3 81 81 SSE 10 17 30.09 1019 10 16 0.00 0.00
11:53 pm 23:53 Cloudy 71 21.7 65 18.3 81 81 SSE 13 20 30.09 1019 10 16 0.00 0.00

Powered by AerisWeather